CZ-6A R/B, 62237

Orbit data source: Space-Track

CZ-6A R/B, 62237 is space debris in LEO originally from a launch on Thu, 05 Dec 2024 UTC via a CHANG ZHENG 6A launch vehicle from the Taiyaun Space Center, China (TSC). Debris objects in space refer to the collection of defunct objects orbiting the Earth. Examples of debris include non-operational satellites, rocket bodies, and fragments generated from explosions, collisions, or faulty payload assembly.

Loading next visibility...
Identifier
62237, 2024-232A
Orbit
LEO
Last TLE update
11 hours ago
Origin
Manufacturer
SAST
Mission
Spacecraft
Bus & Motor
CZ-6A STAGE 2, YF-115
Mass
~6,000 kg wet, ~6,000 kg dry
Launch date (UTC)
2024-12-05 (7 months ago)
Launch vehicle
CHANG ZHENG 6A
Launch site
Taiyaun Space Center, China (TSC)
Object type
Payload
Rocket body
Debris
Shape & HBR
Unknown shape, 11 m
Radar Cross Section
Large (>1 m²)

Expand to show TLE details & history

TLE from 11 hours ago
0 CZ-6A R/B
1 62237U 24232A   25181.88914284  .00000186  00000-0  39062-4 0  9993
2 62237  89.0243  55.8662 0100589 123.2129 237.8772 14.51602664 78458
Epoch: 2025-06-30T21:20Z
TLE epoch observation values (Epoch: 2025-06-30T21:20:21.941Z)
Latitude
-0.00005°
Longitude
176.5823°
Altitude
762.005 km
Speed
7.453 km/s
True Right ascension
03h 43m 27s
True Declination
0° 00' 00"
Sunlit
Object was in daylight at epoch
Visualization orbit readout
Latitude
-72.18314°
Longitude
173.5062°
Altitude
816.557 km
Speed
7.407 km/s
Apparent Right ascension
06h 52m 04s
Apparent Declination
-61° 08' 03"
Sunlit
Object is in daylight
Visualization observer readout
Local Sidereal Time
20:13:07
Azimuth
156.312° SSE
Elevation
-65.408°
Doppler factor
1
Orbital elements
Apogee altitude
788.697 km
Perigee altitude
645.952 km
Semi-major axis
7,095.461 km
Eccentricity
0.01006
Inclination
89.0243°
RAAN
55.8662°
Arg. of periapsis
123.2129°
True anomaly
Unknown
Mean anomaly
237.8772°
Eccentric anomaly
Unknown
Mean motion
3.63138 °/min
Orbital period
99.14 mins
BSTAR
0.000039062
Loading maneuver chart data...
Loading SW <> Apogee altitude chart data...
Loading historical data...
Loading historical data...
Loading historical data...
Loading historical data...
Loading historical data...
Loading historical data...
Loading historical data...

CZ-6A R/B Visibility forecast

Observer location: undefined°, undefined°

Span
Click to sort rows by Start time (UTC) header in descending order
Start Az.
Max El. time (UTC)
Max El. Az.
Max El.
End time (UTC)
End Az.
8 mins2025-07-01 15:38:58.611Z158.437° S2025-07-01 15:42:58.611Z102.723° ESE37.142°2025-07-01 15:46:58.611Z13.826° NNE
7 mins2025-07-02 03:41:58.611Z10.106° NNE2025-07-02 03:44:58.611Z59.634° ENE41.283°2025-07-02 03:48:58.611Z169.783° S
|